Location: Newark
(32.8494°S, 27.4381°E)
Time: 15:01:42
(UTC+00:00)

N. Korean satellite - Visible Passes

Search period start: 21 July 2019 00:00
Search period end: 31 July 2019 00:00
Orbit: 456 x 508 km, 97.2° (Epoch: 21 July)

Date Brightness Start Highest point End Pass type
(mag) Time Alt. Az. Time Alt. Az. Time Alt. Az.
21 Jul 8.7 02:53:20 10° NE 02:56:28 26° ESE 02:57:54 20° SE visible
21 Jul 8.4 04:27:39 10° NW 04:29:49 15° W 04:32:01 10° WSW visible
21 Jul 6.5 15:56:58 10° SSE 16:00:26 60° E 16:03:49 10° N visible
22 Jul 9.7 02:29:54 10° E 02:31:34 13° ESE 02:32:37 11° SE visible
22 Jul 7.4 04:01:17 10° NNW 04:04:37 31° W 04:06:56 17° SW visible
22 Jul 9.6 17:06:39 10° SW 17:08:23 13° WSW 17:10:06 10° W visible
23 Jul 6.5 03:35:48 10° N 03:39:29 75° W 03:41:38 24° SSW visible
23 Jul 8.6 16:40:25 10° SSW 16:43:28 28° WSW 16:46:27 10° NW visible
24 Jul 7.6 03:10:54 10° NNE 03:14:26 45° ESE 03:16:20 24° SSE visible
24 Jul 6.8 16:14:58 10° S 16:18:26 69° WSW 16:21:52 10° NNW visible
25 Jul 9.1 02:46:38 10° ENE 02:49:28 21° ESE 02:51:02 16° SE visible
25 Jul 8.2 04:20:09 10° NW 04:22:45 18° W 04:25:20 10° SW visible
25 Jul 6.8 15:49:57 10° SSE 15:53:19 46° E 15:56:39 10° N visible
26 Jul 9.9 02:24:20 10° ESE 02:24:34 10° ESE 02:24:48 10° ESE visible
26 Jul 7.1 03:54:05 10° NNW 03:57:33 39° W 04:00:04 17° SW visible
26 Jul 9.5 16:59:08 10° SSW 17:01:21 16° WSW 17:03:34 10° WNW visible
27 Jul 6.5 03:28:45 10° NNE 03:32:26 87° ESE 03:34:47 21° S visible
27 Jul 8.1 16:33:11 10° S 16:36:23 35° WSW 16:39:34 10° NW visible
28 Jul 8.1 03:04:00 10° NE 03:07:23 36° ESE 03:09:30 19° SSE visible
28 Jul 6.5 16:07:50 10° S 16:11:20 88° WSW 16:14:47 10° NNW visible
29 Jul 9.4 02:39:59 10° ENE 02:42:26 17° ESE 02:44:14 13° SE visible
29 Jul 7.9 04:12:45 10° NNW 04:15:38 22° W 04:18:32 10° SW visible
30 Jul 6.8 03:46:55 10° N 03:50:28 49° W 03:53:17 15° SSW visible
30 Jul 9.2 16:51:41 10° SSW 16:54:17 20° WSW 16:56:52 10° WNW visible
